Location: Grasslands National Park East Block
(49.0708°N, 106.5295°W)
Time: 16:18:50
(UTC-06:00)

Max Valier Satellite - Pass Details

Date: 27 September 2019
Orbit: 490 x 508 km, 97.3° (Epoch: 15 October)

Event Time Altitude Azimuth Distance (km) Brightness Sun altitude
Exits shadow 20:39:17 14° 40° (NE) 1,521 ? -17.9°
Drops below altitude 10° 20:40:18 10° 25° (NNE) 1,734 ? -18.1°
Sets 20:43:03 0° 3° (N) 2,624 ? -18.5°
